Simultaneous Nadir Overpasses (SNOs) Predictions

Prediction of SNOs between GOES-16 and TERRA Satellite Orbit:

Table of predicted SNOs for the next 14.0 days since TLE Epoch: 8/3/2024
Index Date Time (GOES-16) GOES-16 Lat,Lon TERRA Lat,Lon Distance(km) Time Diff (sec)
1 08/03/2024 14:39:10 -0.01, -75.20 -0.40, -73.48 196.15 80
2 08/04/2024 02:56:29 0.02, -75.20 -0.64, -78.34 357.30 80
3 08/06/2024 02:41:35 0.02, -75.21 0.28, -74.11 126.21 80
4 08/06/2024 14:58:46 -0.03, -75.22 0.75, -78.94 421.86 80
5 08/08/2024 14:43:50 -0.03, -75.25 -0.16, -74.70 63.07 80
6 08/09/2024 03:01:10 0.03, -75.25 -0.88, -79.56 489.73 80
7 08/11/2024 02:43:33 0.03, -75.28 -0.00, -75.31 4.70 80
8 08/13/2024 02:28:36 0.02, -75.31 0.90, -71.06 482.35 80
9 08/13/2024 14:45:48 -0.02, -75.32 0.09, -75.89 65.00 80
10 08/15/2024 14:30:50 -0.02, -75.35 -0.80, -71.64 421.56 80
11 08/16/2024 02:50:50 0.02, -75.35 -0.23, -76.50 130.97 80
